www.pogodaiklimat.ru

Погода и климат >> Архив погоды >> Италия >> Казерта


ПОГОДА в Казерте

  • Прогноз погоды в Казерте
  • Монитор погоды в Казерте

АРХИВ ПОГОДЫ в Казерте

Время (UTC), дата Ветер
(напр.,м/с)
 
Видим.   Явления Облачность Т
(С)
Тd
(С)
f
(%)
Тe
(С)
Тes
(С)
Комфортность P
(гПа)
Po
(гПа)
Тmin
(С)
Tmax
(С)
R
(мм)
R24
(мм)
S
(см)
21 9.06 0 н/о н/о 1009.7
22 9.06 0 н/о н/о 1009.5
23 9.06 0 н/о н/о 1009.3
00 10.06 0 н/о н/о
01 10.06 0 н/о н/о 1008.4
02 10.06 0 н/о н/о 1007.6
03 10.06 0 н/о н/о 1007.7
04 10.06 0 н/о н/о 1007.6
05 10.06 0 н/о н/о 1007.5
06 10.06 0 н/о н/о 1007.6 1
07 10.06 0 н/о н/о 1007.5
08 10.06 0 н/о н/о 1007.3
09 10.06 0 н/о н/о
10 10.06 0 н/о н/о 1006.5
21 10.06 0 н/о н/о 1003.9
22 10.06 0 н/о н/о 1003.7
23 10.06 0 н/о н/о 1003.9
00 11.06 0 н/о н/о 1003.5
01 11.06 0 н/о н/о 1003.0
02 11.06 0 н/о н/о 1002.7
03 11.06 0 н/о н/о 1002.6
04 11.06 0 н/о н/о 1002.9
05 11.06 0 н/о н/о 1003.4
06 11.06 0 н/о н/о 1003.8 1
07 11.06 0 н/о н/о 1004.1
08 11.06 0 н/о н/о 1004.0
09 11.06 0 н/о н/о 1003.9
10 11.06 0 н/о н/о
20 11.06 0 н/о н/о 1002.6
21 11.06 0 н/о н/о 1002.8
22 11.06 0 н/о н/о 1003.1
23 11.06 0 н/о н/о 1003.4
00 12.06 0 н/о н/о 1003.2
01 12.06 0 н/о н/о 1003.0
02 12.06 0 н/о н/о 1002.6
03 12.06 0 н/о н/о 1002.5
04 12.06 0 н/о н/о 1002.9
05 12.06 0 н/о н/о 1003.0
06 12.06 0 н/о н/о 1003.2 1
07 12.06 0 н/о н/о 1003.8
08 12.06 0 н/о н/о 1003.7
09 12.06 0 н/о н/о 1003.8
10 12.06 0 н/о н/о 1003.7
21 12.06 0 н/о н/о 1005.7
22 12.06 0 н/о н/о 1005.9
23 12.06 0 н/о н/о 1005.8
00 13.06 0 н/о н/о 1005.7
01 13.06 0 н/о н/о
02 13.06 0 н/о н/о 1005.6
03 13.06 0 н/о н/о 1005.7
04 13.06 0 н/о н/о 1006.4
05 13.06 0 н/о н/о 1007.1
06 13.06 0 н/о н/о 1007.6 1
07 13.06 0 н/о н/о 1007.9
08 13.06 0 н/о н/о 1008.2
09 13.06 0 н/о н/о 1008.4
10 13.06 0 н/о н/о 1008.2
11 13.06 0 н/о н/о 1008.3
21 13.06 0 н/о н/о 1009.4
22 13.06 0 н/о н/о 1009.5
23 13.06 0 н/о н/о 1009.6
00 14.06 0 н/о н/о 1009.4
01 14.06 0 н/о н/о 1009.1
02 14.06 0 н/о н/о 1008.7
03 14.06 0 н/о н/о 1008.7
04 14.06 0 н/о н/о 1009.2
05 14.06 0 н/о н/о 1009.5
06 14.06 0 н/о н/о 1009.6 1
07 14.06 0 н/о н/о 1010.1
08 14.06 0 н/о н/о 1009.9
09 14.06 0 н/о н/о 1009.9
10 14.06 0 н/о н/о 1009.7
22 14.06 0 н/о н/о 1010.2
23 14.06 0 н/о н/о 1009.3
00 15.06 0 н/о н/о 1008.0
01 15.06 0 н/о н/о 1007.3
02 15.06 0 н/о н/о 1008.0
03 15.06 0 н/о н/о 1008.4
04 15.06 0 н/о н/о 1008.5
05 15.06 0 н/о н/о 1008.1
06 15.06 0 н/о н/о 1007.9 1
07 15.06 0 н/о н/о 1008.4
08 15.06 0 н/о н/о 1008.2
09 15.06 0 н/о н/о 1008.2
10 15.06 0 н/о н/о 1008.0
21 15.06 0 н/о н/о 1007.4
22 15.06 0 н/о н/о 1007.9
23 15.06 0 н/о н/о 1008.1
00 16.06 0 н/о н/о 1007.8
01 16.06 0 н/о н/о 1007.5
02 16.06 0 н/о н/о 1007.1
03 16.06 0 н/о н/о 1007.4
04 16.06 0 н/о н/о 1007.4
05 16.06 0 н/о н/о 1007.5
06 16.06 0 н/о н/о 1007.8 1
07 16.06 0 н/о н/о 1008.0
08 16.06 0 н/о н/о 1007.9
09 16.06 0 н/о н/о 1007.9
10 16.06 0 н/о н/о 1007.9

 

Местоположение метеостанции Казерта (Италия): широта 41.07 долгота 14.32 высота над уровнем моря 61 м.

В архиве по умолчанию представлена погода в Казерте за последнюю неделю. Архивные данные за месяц целиком и за предыдущие месяцы, начиная с января 2011 года, Вы можете получить, выбрав интересующий диапазон дат из раскрывающегося списка и нажав кнопку "Ввод!".


*Определитесь, кто Вы:
робот инопланетянин человек

Внимание! Время в таблицах - всемирное. Для получения местного времени необходимо прибавить поправку, которая равна 1 ч.

Смотрите также архив погоды в соседних городах и на ближайших метеорологических станциях:

Погода в Граццанизе (Италия) (21 км)
Погода в Неаполе (Италия) (25 км)
Погода на Капри (Италия) (59 км)
Погода в Кампобассо (Италия) (62 км)
Погода в Тревико (Италия) (76 км)
Погода в Торре-Олеволе (Италия) (102 км)
Погода во Фрозиноне (Италия) (106 км)
Погода на Понце (Италия) (116 км)
Погода в Фучино (Италия) (117 км)
Погода в Термоли (Италия) (118 км)

Пояснения к столбцам:

Ветер - указаны скорость ветра в м/с - средняя за 10 мин, порывы в срок и между сроками (в фигурных скобках) и направление, откуда дует ветер: С - северный, СВ - северо-восточный, В - восточный, ЮВ - юго-восточный, Ю - южный, ЮЗ - юго-западный, З - западный, СЗ - северо-западный.
Видимость - горизонтальная дальность видимости в метрах или километрах. При видимости от 1 до 10 км при отсутствии осадков обычно наблюдается дымка, при ухудшении видимости до 1 км и менее - туман. В сухую погоду видимость может ухудшаться дымом, пылью или мглою.
Явления - указаны атмосферные явления, наблюдавшиеся в срок или в последний час перед сроком; фигурными скобками обозначены явления, наблюдавшиеся между сроками (за 1-3 часа до срока); квадратными скобками обозначены град или гололедные отложения с указанием их диаметра в мм.
Облачность - указаны через наклонную черту общая и нижняя облачность в баллах и высота нижней границы облаков в метрах; квадратными скобками обозначены формы облаков: Ci - перистые, Cs - перисто-слоистые, Cc - перисто-кучевые, Ac - высококучевые, As - высокослоистые, Sc - слоисто-кучевые, Ns - слоисто-дождевые, Cu - кучевые, Cb - кучево-дождевые. Подробнее классификацию облаков см. в Атласе облаков (PDF).
T - Температура воздуха - температура, измеренная на высоте 2 м над землей.
Td - Температура точки росы - температура, при понижении до которой содержащийся в воздухе водяной пар достигнет насыщения.
f - Относительная влажность воздуха - влажноcть воздуха, измеренная на высоте 2 м над землей.
Te - Эффективная температура - температура, которую ощущает одетый по сезону человек в тени. Характеристика душности погоды. При расчете учитывается влияние влажности воздуха и скорости ветра на теплоощущения человека.
Tes - Эффективная температура на солнце - температура, которую ощущает человек, с поправкой на солнечный нагрев. Характеристика знойности погоды. Зависит от высоты солнца над горизонтом, облачности и скорости ветра. Ночью, в пасмурную погоду, а также при ветре 12 м/с и более поправка равна нулю.
P - Атмосферное давление - приведенное к уровню моря атмосферное давление.
Po - Атмосферное давление - измеренное на уровне метеостанции атмосферное давление.
Tmin - Минимальная температура - минимум температуры воздуха на высоте 2 м над землей.
Tmax - Максимальная температура - максимум температуры воздуха на высоте 2 м над землей.
R - Количество осадков - Количество выпавших осадков за период времени, мм. При наведении курсора мыши на число - период времени, за который выпало указанное количество осадков.
R24 - Количество осадков - Количество выпавших осадков за 24 часа, мм.
S - Снежный покров - Высота снежного покрова, см. При наведении курсора мыши на число - состояние снежного покрова и степень покрытия местности в баллах.